Location: The Jewett Observatory
(46.7288°N, 117.1525°W)
Time: 04:01:44
(UTC-07:00)

Amateur Radio Satellites - All Passes

Search period start: 30 May 2017 03:31
Search period end: 31 May 2017 03:31
Location: The Jewett Observatory, 46.7288°N, 117.1525°W

Satellite Date Start Highest point End Downlink Frequencies (MHz)
Time Altitude Azimuth
PCSat 30 May 03:32:45 03:38:14 89° 223° (SW) 03:43:40 145.827
O/OREOS (USA 219) 30 May 03:33:48 03:38:21 70° 112° (ESE) 03:42:56 437.305
RS-15 30 May 03:37:02 03:49:09 61° 318° (NW) 04:01:25 29.354- 29.394
ITUPSAT 1 30 May 03:42:57 03:47:16 33° 263° (W) 03:51:38 437.325
KKS-1 30 May 03:45:47 03:49:34 29° 65° (ENE) 03:53:21 437.445
AO-7 30 May 03:50:42 03:58:31 41° 98° (E) 04:06:17 .
STARS 30 May 04:06:01 04:09:17 21° 63° (ENE) 04:12:34 437.465
SO-50 30 May 04:10:29 04:13:16 16° 29° (NNE) 04:16:01 436.795
BEESAT 30 May 04:15:17 04:18:27 17° 269° (W) 04:21:36 436.000
CUBESAT XI-V 30 May 04:17:01 04:21:40 66° 73° (ENE) 04:26:22 437.345
ITAMSAT 1 30 May 04:27:42 04:32:57 83° 106° (ESE) 04:38:11 435.822/435.867
AO-85 30 May 04:39:32 04:43:37 62° 310° (NW) 04:47:32 145.980
BEESAT 2 30 May 04:49:03 04:52:19 25° 115° (ESE) 04:55:38 435.950
BEESAT 3 30 May 04:59:10 05:03:08 80° 126° (SE) 05:07:10 437.485
MOZHAYETS 4 30 May 05:01:47 05:02:55 11° 274° (W) 05:04:03
O/OREOS (USA 219) 30 May 05:15:07 05:18:16 18° 312° (NW) 05:21:25 437.305
PCSat 30 May 05:17:57 05:20:49 15° 257° (WSW) 05:23:42 145.827
KKS-1 30 May 05:22:03 05:26:02 32° 263° (W) 05:30:02 437.445
STARS 30 May 05:41:10 05:45:21 45° 261° (W) 05:49:33 437.465
STRAND 1 30 May 05:41:44 05:44:29 15° 56° (NE) 05:47:14 437.568
AO-7 30 May 05:43:27 05:51:28 54° 299° (WNW) 05:59:30 .
SO-50 30 May 05:50:05 05:54:35 65° 50° (NE) 05:59:05 436.795
RS-15 30 May 05:53:51 06:04:48 34° 349° (N) 06:15:40 29.354- 29.394
CUBESAT XI-V 30 May 05:56:41 05:59:30 16° 271° (W) 06:02:20 437.345
XW-2D 30 May 06:00:10 06:02:30 15° 91° (E) 06:04:47 145.860 - 145.880
NUDT-PHONESAT 30 May 06:04:37 06:06:20 13° 89° (E) 06:08:02 437.300
XW-2B 30 May 06:07:57 06:10:38 18° 92° (E) 06:13:17 145.730 - 145.750
ITAMSAT 1 30 May 06:08:33 06:11:46 17° 303° (WNW) 06:14:57 435.822/435.867
XW-2F 30 May 06:17:17 06:20:19 22° 93° (E) 06:23:19 145.980 - 146.000
KAITUO 1B 30 May 06:18:08 06:20:50 18° 92° (E) 06:23:31 145.475/437.950
XW-2C 30 May 06:21:23 06:24:39 25° 95° (E) 06:27:51 145.795 - 145.815
AO-85 30 May 06:22:58 06:24:46 13° 331° (NNW) 06:26:34 145.980
BEESAT 2 30 May 06:26:08 06:29:54 40° 314° (NW) 06:33:45 435.950
DOVE 4 30 May 06:36:48 06:41:00 69° 103° (ESE) 06:45:18 437.250
BEESAT 3 30 May 06:38:27 06:41:14 18° 325° (NW) 06:44:01 437.485
CUTE-I 30 May 06:52:02 06:57:11 47° 99° (E) 07:02:20 437.470
HO-68 30 May 06:55:13 06:59:59 18° 88° (E) 07:04:42 435.675
NO-84 30 May 07:02:20 07:05:55 25° 131° (SE) 07:09:28 435.350 FM
LilacSat-2 30 May 07:03:49 07:07:43 82° 102° (ESE) 07:11:35 437.200
STRAND 1 30 May 07:17:49 07:22:56 89° 66° (ENE) 07:28:05 437.568
SO-50 30 May 07:31:33 07:34:35 18° 248° (WSW) 07:37:37 436.795
XW-2D 30 May 07:33:13 07:36:56 46° 288° (WNW) 07:40:37 145.860 - 145.880
SEEDS 30 May 07:35:00 07:37:51 17° 91° (E) 07:40:40 437.485
NUDT-PHONESAT 30 May 07:36:52 07:40:34 54° 287° (WNW) 07:44:15 437.300
AO-7 30 May 07:37:56 07:42:26 16° 321° (NW) 07:46:56 .
XW-2B 30 May 07:41:22 07:44:59 39° 289° (WNW) 07:48:35 145.730 - 145.750
XW-2F 30 May 07:51:04 07:54:30 32° 291° (WNW) 07:57:55 145.980 - 146.000
KAITUO 1B 30 May 07:51:27 07:54:59 37° 290° (WNW) 07:58:29 145.475/437.950
XW-2C 30 May 07:55:29 07:58:48 28° 292° (WNW) 08:02:06 145.795 - 145.815
M-CUBED/EXP-1 PRIME 30 May 08:03:22 08:07:25 70° 69° (ENE) 08:11:09 437.505
BEESAT 2 30 May 08:08:05 08:08:46 10° 336° (NNW) 08:09:26 435.950
RS-15 30 May 08:10:09 08:21:35 40° 23° (NNE) 08:32:37 29.354- 29.394
CUBEBUG 2 30 May 08:13:36 08:17:52 36° 96° (E) 08:22:13 437.445
UWE-3 30 May 08:15:27 08:19:12 24° 93° (E) 08:22:59 435.000/436.395/437.385
DOVE 4 30 May 08:16:08 08:18:13 14° 299° (WNW) 08:20:19 437.250
AAUSAT CUBESAT 2 30 May 08:21:36 08:25:05 25° 94° (E) 08:28:31 437.432
PRISM 30 May 08:26:53 08:29:09 15° 61° (ENE) 08:31:26 437.425
CUTE 1.7 + AOD 2 30 May 08:28:26 08:32:43 86° 288° (WNW) 08:36:58 437.475
FO-29 30 May 08:31:57 08:35:37 20° 57° (ENE) 08:39:27 435.910
Oscar 11 30 May 08:32:00 08:34:18 14° 89° (E) 08:36:35 .
CUTE-I 30 May 08:32:31 08:37:01 28° 297° (WNW) 08:41:30 437.470
XW-2A 30 May 08:34:41 08:38:09 74° 284° (WNW) 08:41:36 145.665 - 145.685
NO-84 30 May 08:38:52 08:43:15 72° 328° (NNW) 08:47:30 435.350 FM
LilacSat-2 30 May 08:40:36 08:41:22 10° 301° (WNW) 08:42:08 437.200
HO-68 30 May 08:41:24 08:48:40 89° 111° (ESE) 08:55:52 435.675
STRAND 1 30 May 09:00:38 09:02:49 13° 273° (W) 09:05:01 437.568
AO-73 30 May 09:02:21 09:06:36 36° 96° (E) 09:10:49 145.935
TIGRISAT 30 May 09:02:22 09:05:51 24° 65° (ENE) 09:09:26 435.000
SEEDS 30 May 09:09:44 09:13:48 48° 289° (WNW) 09:17:49 437.485
ZACube-1 30 May 09:18:44 09:23:17 58° 100° (E) 09:27:48 437.345
YUBILEINY 30 May 09:22:32 09:24:23 11° 44° (NE) 09:26:13 435.215
UNISAT 6 30 May 09:34:30 09:38:42 53° 72° (ENE) 09:43:01 437.425
DELFI C3 30 May 09:37:44 09:40:28 18° 92° (E) 09:43:11 145.870
M-CUBED/EXP-1 PRIME 30 May 09:40:53 09:42:10 11° 263° (W) 09:43:26 437.505
CUBEBUG 2 30 May 09:50:25 09:54:22 29° 294° (WNW) 09:58:23 437.445
UWE-3 30 May 09:51:27 09:55:48 42° 290° (WNW) 10:00:10 435.000/436.395/437.385
AAUSAT CUBESAT 2 30 May 09:56:53 10:00:33 31° 292° (WNW) 10:04:11 437.432
PRISM 30 May 09:59:52 10:03:58 63° 258° (WSW) 10:08:03 437.425
Oscar 11 30 May 10:06:32 10:10:52 64° 287° (WNW) 10:15:10 .
CUTE 1.7 + AOD 2 30 May 10:06:52 10:07:50 11° 302° (WNW) 10:08:49 437.475
EO-88 30 May 10:11:43 10:14:59 29° 96° (E) 10:18:12 145.990 - 145.960
QB50P2 30 May 10:13:26 10:15:13 12° 59° (ENE) 10:17:00 145.880/145.840
FO-29 30 May 10:14:59 10:20:09 67° 258° (WSW) 10:25:38 435.910
NO-84 30 May 10:17:36 10:21:23 29° 348° (NNW) 10:25:02 435.350 FM
RS-15 30 May 10:23:39 10:36:01 85° 53° (NE) 10:47:46 29.354- 29.394
HO-68 30 May 10:30:14 10:35:32 23° 308° (NW) 10:40:49 435.675
TIGRISAT 30 May 10:38:23 10:42:23 37° 263° (W) 10:46:29 435.000
AO-73 30 May 10:38:50 10:42:41 27° 294° (WNW) 10:46:32 145.935
EO-79 30 May 10:47:08 10:50:29 24° 65° (ENE) 10:53:52 145.935-145.965
ZACube-1 30 May 10:56:00 10:59:08 19° 298° (WNW) 11:02:16 437.345
AIST 2D 30 May 10:59:37 11:03:04 54° 74° (ENE) 11:06:35 435.315
ESTCUBE 1 30 May 11:02:58 11:04:31 12° 87° (E) 11:06:05 437.505/2401.250
DELFI C3 30 May 11:11:45 11:15:26 40° 289° (WNW) 11:19:06 145.870
UNISAT 6 30 May 11:13:00 11:15:46 17° 270° (W) 11:18:37 437.425
YUBILEINY 30 May 11:15:40 11:24:07 46° 71° (ENE) 11:32:30 435.215
BEESAT 2 30 May 11:27:33 11:28:21 10° 25° (NNE) 11:29:09 435.950
AO-85 30 May 11:27:33 11:31:12 33° 44° (NE) 11:35:01 145.980
NANOSAT C BR1 30 May 11:28:38 11:32:43 56° 72° (ENE) 11:36:50 145.865
BEESAT 3 30 May 11:36:27 11:39:26 19° 36° (NE) 11:42:23 437.485
DUCHIFAT 1 30 May 11:36:54 11:41:00 62° 73° (ENE) 11:45:09 145.980
POLYITAN 1 30 May 11:37:15 11:41:26 77° 75° (ENE) 11:45:40 437.675
BUGSAT 1 30 May 11:38:42 11:41:45 21° 64° (ENE) 11:44:50 437.445
EO-88 30 May 11:45:36 11:48:32 22° 293° (WNW) 11:51:26 145.990 - 145.960
QB50P2 30 May 11:46:12 11:50:24 80° 258° (WSW) 11:54:39 145.880/145.840
NO-84 30 May 11:56:17 11:59:54 27° 9° (N) 12:03:18 435.350 FM
O/OREOS (USA 219) 30 May 12:02:07 12:06:03 28° 54° (NE) 12:09:56 437.305
LO-87 30 May 12:13:43 12:17:16 68° 286° (WNW) 12:20:49 145.935 - 145.965
EO-79 30 May 12:22:13 12:26:04 36° 263° (W) 12:29:59 145.935-145.965
SPROUT 30 May 12:35:12 12:38:52 27° 95° (E) 12:42:32 437.525
AIST 2D 30 May 12:35:30 12:36:38 11° 271° (W) 12:37:46 435.315
RS-15 30 May 12:37:14 12:47:06 31° 257° (WSW) 12:56:38 29.354- 29.394
ESTCUBE 1 30 May 12:37:23 12:41:55 81° 285° (WNW) 12:46:24 437.505/2401.250
50 SAT 30 May 12:55:11 12:57:40 19° 94° (E) 13:00:08 437.505
Oscar 19 30 May 12:58:08 13:03:12 57° 71° (ENE) 13:08:18 437.125/150
BEESAT 2 30 May 13:03:19 13:07:12 40° 46° (NE) 13:11:02 435.950
AO-7 30 May 13:03:45 13:09:21 20° 44° (NE) 13:14:57 .
NANOSAT C BR1 30 May 13:06:23 13:08:47 15° 270° (W) 13:11:13 145.865
AO-85 30 May 13:07:59 13:11:33 30° 242° (WSW) 13:15:17 145.980
Gurwin Techsat 1B 30 May 13:11:04 13:16:08 47° 68° (ENE) 13:21:13 435.225
YUBILEINY 30 May 13:12:40 13:20:56 47° 273° (W) 13:29:12 435.215
BUGSAT 1 30 May 13:13:12 13:16:55 37° 262° (W) 13:20:41 437.445
BEESAT 3 30 May 13:13:25 13:17:27 70° 236° (SW) 13:21:23 437.485
VELOX 1 30 May 13:13:56 13:18:18 65° 102° (ESE) 13:22:39 145.980
DUCHIFAT 1 30 May 13:14:59 13:17:06 14° 271° (W) 13:19:12 145.980
POLYITAN 1 30 May 13:16:33 13:17:45 11° 272° (W) 13:18:59 437.675
UKube-1 30 May 13:19:04 13:22:08 19° 92° (E) 13:25:12 .
NO-84 30 May 13:34:03 13:38:04 65° 30° (NNE) 13:41:44 435.350 FM
DX 1 30 May 13:35:11 13:39:16 38° 98° (E) 13:43:19 434.975-435.025
O/OREOS (USA 219) 30 May 13:41:23 13:45:32 37° 253° (WSW) 13:49:39 437.305
ITAMSAT 1 30 May 14:10:25 14:14:39 26° 62° (ENE) 14:18:53 435.822/435.867
SPROUT 30 May 14:10:59 14:14:48 32° 292° (WNW) 14:18:35 437.525
ESTCUBE 1 30 May 14:16:37 14:17:57 11° 304° (WNW) 14:19:17 437.505/2401.250
50 SAT 30 May 14:27:36 14:30:34 28° 291° (WNW) 14:33:30 437.505
BEESAT 30 May 14:34:42 14:36:38 12° 88° (E) 14:38:32 436.000
Oscar 19 30 May 14:38:58 14:42:53 21° 268° (W) 14:46:49 437.125/150
BEESAT 2 30 May 14:41:26 14:44:47 25° 245° (WSW) 14:48:06 435.950
VELOX 1 30 May 14:51:37 14:54:16 16° 300° (WNW) 14:56:54 145.980
Gurwin Techsat 1B 30 May 14:51:51 14:56:17 27° 266° (W) 15:00:45 435.225
AO-7 30 May 14:52:31 15:00:44 70° 66° (ENE) 15:09:01 .
UKube-1 30 May 14:54:16 14:58:25 46° 290° (WNW) 15:02:31 .
DX 1 30 May 15:11:47 15:15:15 24° 296° (WNW) 15:18:42 434.975-435.025
NO-84 30 May 15:12:18 15:15:17 22° 231° (SW) 15:18:04 435.350 FM
MOZHAYETS 4 30 May 15:13:32 15:16:39 18° 90° (E) 15:19:45
ITUPSAT 1 30 May 15:39:49 15:44:31 49° 100° (E) 15:49:10 437.325
ITAMSAT 1 30 May 15:48:52 15:53:51 48° 261° (W) 15:58:54 435.822/435.867
BEESAT 30 May 16:10:12 16:15:02 85° 287° (WNW) 16:19:50 436.000
DOVE 4 30 May 16:10:37 16:12:13 12° 59° (ENE) 16:13:47 437.250
CUBESAT XI-V 30 May 16:12:21 16:14:33 13° 88° (E) 16:16:45 437.345
CUTE-I 30 May 16:39:23 16:42:40 17° 57° (ENE) 16:45:57 437.470
XW-2D 30 May 16:45:02 16:46:42 12° 61° (ENE) 16:48:23 145.860 - 145.880
AO-7 30 May 16:47:10 16:54:09 30° 266° (W) 17:01:12 .
MOZHAYETS 4 30 May 16:49:36 16:54:11 57° 288° (WNW) 16:58:43
XW-2B 30 May 16:52:36 16:54:43 14° 62° (ENE) 16:56:51 145.730 - 145.750
XW-2F 30 May 17:01:21 17:03:52 17° 64° (ENE) 17:06:25 145.980 - 146.000
KAITUO 1B 30 May 17:01:33 17:03:38 14° 62° (ENE) 17:05:45 145.475/437.950
XW-2C 30 May 17:05:41 17:08:30 20° 65° (ENE) 17:11:20 145.795 - 145.815
KKS-1 30 May 17:09:30 17:13:38 36° 98° (E) 17:17:44 437.445
ITUPSAT 1 30 May 17:18:16 17:22:02 23° 298° (WNW) 17:25:46 437.325
STARS 30 May 17:27:39 17:31:19 25° 95° (E) 17:34:58 437.465
HO-68 30 May 17:27:39 17:32:47 22° 51° (NE) 17:37:55 435.675
DOVE 4 30 May 17:44:53 17:49:21 85° 257° (WSW) 17:53:38 437.250
CUBESAT XI-V 30 May 17:47:50 17:52:29 75° 287° (WNW) 17:57:05 437.345
LilacSat-2 30 May 17:47:58 17:51:44 59° 74° (ENE) 17:55:35 437.200
BEESAT 30 May 17:49:55 17:52:04 13° 304° (NW) 17:54:13 436.000
CUTE 1.7 + AOD 2 30 May 17:50:47 17:52:23 12° 59° (ENE) 17:53:59 437.475
XW-2D 30 May 18:16:34 18:20:23 65° 259° (W) 18:24:13 145.860 - 145.880
CUTE-I 30 May 18:16:44 18:22:03 84° 256° (WSW) 18:27:24 437.470
PCSat 30 May 18:17:05 18:22:15 47° 115° (ESE) 18:27:26 145.827
NUDT-PHONESAT 30 May 18:18:17 18:22:01 83° 257° (WSW) 18:25:49 437.300
XW-2B 30 May 18:24:44 18:28:29 54° 260° (W) 18:32:17 145.730 - 145.750
SEEDS 30 May 18:29:25 18:32:23 19° 63° (ENE) 18:35:21 437.485
KAITUO 1B 30 May 18:33:31 18:37:14 53° 260° (W) 18:40:59 145.475/437.950
XW-2F 30 May 18:34:02 18:37:41 43° 261° (W) 18:41:23 145.980 - 146.000
ISS 30 May 18:36:16 18:38:26 17° 136° (SE) 18:40:37 437.550
XW-2C 30 May 18:38:54 18:42:27 37° 263° (W) 18:46:04 145.795 - 145.815
KKS-1 30 May 18:46:21 18:50:02 26° 295° (WNW) 18:53:43 437.445
Tancredo 1 30 May 18:53:41 18:56:28 32° 143° (SE) 18:59:17 437.200
STARS 30 May 19:03:42 19:07:44 36° 292° (WNW) 19:11:45 437.465
XW-2A 30 May 19:08:21 19:11:38 53° 74° (ENE) 19:14:58 145.665 - 145.685
HO-68 30 May 19:12:23 19:19:35 87° 71° (ENE) 19:26:50 435.675
AAUSAT CUBESAT 2 30 May 19:14:18 19:17:45 25° 66° (ENE) 19:21:11 437.432
CUBEBUG 2 30 May 19:14:29 19:18:23 38° 69° (ENE) 19:22:24 437.445
UWE-3 30 May 19:15:19 19:18:49 25° 65° (ENE) 19:22:24 435.000/436.395/437.385
CUTE 1.7 + AOD 2 30 May 19:23:15 19:27:33 87° 257° (WSW) 19:31:53 437.475
LilacSat-2 30 May 19:24:46 19:26:24 12° 271° (W) 19:28:03 437.200
STRAND 1 30 May 19:25:53 19:30:05 25° 93° (E) 19:34:16 437.568
CUBESAT XI-V 30 May 19:27:55 19:29:01 11° 304° (NW) 19:30:08 437.345
Oscar 11 30 May 19:29:28 19:32:14 17° 61° (ENE) 19:34:59 .
AO-73 30 May 20:00:23 20:04:21 38° 69° (ENE) 20:08:26 145.935
PCSat 30 May 20:00:52 20:05:48 34° 315° (NW) 20:10:46 145.827
CUTE-I 30 May 20:00:57 20:02:54 12° 274° (W) 20:04:52 437.470
SEEDS 30 May 20:03:35 20:07:43 49° 261° (W) 20:11:53 437.485
ISS 30 May 20:11:15 20:14:33 89° 326° (NW) 20:17:52 437.550
ZACube-1 30 May 20:16:59 20:21:11 62° 73° (ENE) 20:25:33 437.345
DELFI C3 30 May 20:26:10 20:28:43 17° 63° (ENE) 20:31:16 145.870
Tancredo 1 30 May 20:29:08 20:32:08 50° 342° (NNW) 20:35:08 437.200
XW-2A 30 May 20:44:20 20:44:44 10° 271° (W) 20:45:08 145.665 - 145.685
AAUSAT CUBESAT 2 30 May 20:49:17 20:53:04 33° 264° (W) 20:56:53 437.432
UWE-3 30 May 20:51:14 20:55:07 35° 264° (W) 20:59:08 435.000/436.395/437.385
CUBEBUG 2 30 May 20:51:53 20:55:10 22° 268° (W) 20:58:32 437.445
EO-88 30 May 20:52:30 20:55:16 20° 66° (ENE) 20:58:03 145.990 - 145.960
HO-68 30 May 21:03:13 21:08:11 20° 271° (W) 21:13:12 435.675
Oscar 11 30 May 21:03:37 21:07:55 60° 260° (W) 21:12:14 .
STRAND 1 30 May 21:04:33 21:09:30 48° 291° (WNW) 21:14:26 437.568
M-CUBED/EXP-1 PRIME 30 May 21:13:46 21:16:31 24° 102° (ESE) 21:19:15 437.505
FO-29 30 May 21:20:27 21:24:38 17° 88° (E) 21:29:01 435.910
AO-73 30 May 21:37:18 21:40:43 23° 267° (W) 21:44:13 145.935
PRISM 30 May 21:39:39 21:41:45 14° 90° (E) 21:43:51 437.425
SO-50 30 May 21:46:42 21:51:15 72° 124° (SE) 21:55:47 436.795
ISS 30 May 21:48:14 21:51:19 35° 353° (N) 21:54:24 437.550
PCSat 30 May 21:49:04 21:50:55 12° 339° (NNW) 21:52:47 145.827
ZACube-1 30 May 21:55:34 21:57:56 14° 272° (W) 22:00:19 437.345
DELFI C3 30 May 21:59:16 22:03:08 49° 260° (W) 22:07:01 145.870
ESTCUBE 1 30 May 22:04:36 22:07:29 17° 60° (ENE) 22:10:22 437.505/2401.250
Tancredo 1 30 May 22:05:29 22:08:16 31° 2° (N) 22:11:04 437.200
EO-88 30 May 22:25:27 22:28:46 32° 263° (W) 22:32:06 145.990 - 145.960
TIGRISAT 30 May 22:26:17 22:30:36 36° 97° (E) 22:34:56 435.000
VELOX 1 30 May 22:41:06 22:42:13 11° 56° (ENE) 22:43:20 145.980
M-CUBED/EXP-1 PRIME 30 May 22:48:23 22:50:55 21° 299° (WNW) 22:53:27 437.505
LO-87 30 May 22:52:06 22:55:37 70° 74° (ENE) 22:59:09 145.935 - 145.965
UNISAT 6 30 May 22:59:18 23:03:58 82° 103° (ESE) 23:08:40 437.425
FO-29 30 May 23:03:46 23:10:23 83° 105° (ESE) 23:17:49 435.910
PRISM 30 May 23:13:25 23:17:24 58° 288° (WNW) 23:21:23 437.425
POLYITAN 1 30 May 23:21:58 23:22:37 10° 87° (E) 23:23:16 437.675
ISS 30 May 23:25:07 23:28:17 41° 13° (NNE) 23:31:26 437.550
SO-50 30 May 23:28:34 23:32:10 22° 324° (NW) 23:35:46 436.795
QB50P2 30 May 23:29:30 23:31:45 14° 89° (E) 23:34:00 145.880/145.840
50 SAT 30 May 23:31:04 23:32:38 13° 63° (ENE) 23:34:13 437.505
SPROUT 30 May 23:31:07 23:34:49 30° 67° (ENE) 23:38:31 437.525
ESTCUBE 1 30 May 23:39:18 23:43:48 64° 258° (WSW) 23:48:20 437.505/2401.250
Tancredo 1 30 May 23:41:20 23:44:22 59° 21° (NNE) 23:47:24 437.200
AIST 2D 30 May 23:54:56 23:58:23 44° 99° (E) 00:01:47 435.315
TIGRISAT 31 May 00:03:13 00:07:09 28° 294° (WNW) 00:11:08 435.000
EO-79 31 May 00:03:43 00:07:25 28° 95° (E) 00:11:08 145.935-145.965
VELOX 1 31 May 00:13:31 00:17:55 81° 73° (ENE) 00:22:20 145.980
UKube-1 31 May 00:16:02 00:19:30 24° 64° (ENE) 00:22:57 .
YUBILEINY 31 May 00:20:17 00:28:25 46° 87° (E) 00:36:38 435.215
DX 1 31 May 00:33:05 00:37:16 48° 70° (ENE) 00:41:28 434.975-435.025
UNISAT 6 31 May 00:37:38 00:40:04 14° 301° (WNW) 00:42:31 437.425
NANOSAT C BR1 31 May 00:45:21 00:49:37 71° 102° (ESE) 00:53:52 145.865
FO-29 31 May 00:49:59 00:54:52 23° 302° (WNW) 01:00:08 435.910
RS-15 31 May 00:50:05 01:00:59 42° 108° (ESE) 01:12:05 29.354- 29.394
BUGSAT 1 31 May 00:51:50 00:55:15 24° 94° (E) 00:58:41 437.445
DUCHIFAT 1 31 May 00:53:17 00:57:33 77° 103° (ESE) 01:01:48 145.980
POLYITAN 1 31 May 00:54:40 00:58:59 85° 285° (WNW) 01:03:17 437.675
ISS 31 May 01:01:38 01:04:52 55° 212° (SSW) 01:08:05 437.550
50 SAT 31 May 01:01:45 01:05:06 49° 259° (W) 01:08:28 437.505
QB50P2 31 May 01:03:43 01:07:58 63° 287° (WNW) 01:12:11 145.880/145.840
SPROUT 31 May 01:07:01 01:10:41 28° 265° (W) 01:14:24 437.525
Oscar 19 31 May 01:08:06 01:11:07 16° 89° (E) 01:14:07 437.125/150
ITUPSAT 1 31 May 01:15:00 01:16:49 12° 55° (NE) 01:18:38 437.325
Tancredo 1 31 May 01:17:20 01:19:55 25° 220° (SW) 01:22:29 437.200
PCSat 31 May 01:19:14 01:22:56 18° 32° (NNE) 01:26:37 145.827
Gurwin Techsat 1B 31 May 01:25:45 01:28:33 14° 88° (E) 01:31:21 435.225
AIST 2D 31 May 01:29:11 01:31:14 15° 296° (WNW) 01:33:16 435.315
EO-79 31 May 01:39:25 01:43:10 30° 293° (WNW) 01:46:54 145.935-145.965
BEESAT 31 May 01:43:02 01:46:35 21° 61° (ENE) 01:50:09 436.000
UKube-1 31 May 01:51:19 01:55:20 38° 262° (W) 01:59:22 .
VELOX 1 31 May 01:53:34 01:54:56 11° 272° (W) 01:56:19 145.980
DX 1 31 May 02:10:42 02:13:43 18° 268° (W) 02:16:45 434.975-435.025
YUBILEINY 31 May 02:16:59 02:25:15 45° 289° (WNW) 02:33:39 435.215
MOZHAYETS 4 31 May 02:17:54 02:21:34 24° 64° (ENE) 02:25:18
O/OREOS (USA 219) 31 May 02:18:25 02:21:28 18° 100° (E) 02:24:31 437.305
NANOSAT C BR1 31 May 02:22:34 02:24:47 14° 300° (WNW) 02:27:01 145.865
BUGSAT 1 31 May 02:26:54 02:30:41 34° 291° (WNW) 02:34:28 437.445
DUCHIFAT 1 31 May 02:30:41 02:32:39 13° 301° (WNW) 02:34:36 145.980
POLYITAN 1 31 May 02:32:59 02:34:03 11° 303° (WNW) 02:35:06 437.675
Oscar 19 31 May 02:45:51 02:51:02 75° 287° (WNW) 02:56:09 437.125/150
ITUPSAT 1 31 May 02:49:04 02:53:50 79° 74° (ENE) 02:58:40 437.325
AO-7 31 May 02:52:26 02:57:41 18° 87° (E) 03:02:55 .
RS-15 31 May 03:00:36 03:12:49 72° 312° (NW) 03:25:15 29.354- 29.394
PCSat 31 May 03:01:53 03:07:20 70° 55° (NE) 03:12:45 145.827
Gurwin Techsat 1B 31 May 03:03:49 03:09:11 85° 285° (WNW) 03:14:30 435.225
CUBESAT XI-V 31 May 03:17:51 03:21:13 20° 62° (ENE) 03:24:35 437.345
BEESAT 31 May 03:19:20 03:24:00 54° 259° (W) 03:28:42 436.000
